Location: Enid
(36.3960°N, 97.8780°W)
Time: 10:51:49
(UTC-05:00)

HST - Visible Passes

Search period start: 30 October 2014 00:00
Search period end: 08 November 2014 23:00
Orbit: 546 x 550 km, 28.5° (Epoch: 29 October)

Date Brightness Start Highest point End Pass type
(mag) Time Alt. Az. Time Alt. Az. Time Alt. Az.
30 Oct 2.4 19:08:28 10° SW 19:12:00 26° S 19:15:31 10° ESE visible
30 Oct 2.8 20:49:31 10° WSW 20:51:55 22° SSW 20:51:55 22° SSW visible
31 Oct 2.4 19:01:01 10° WSW 19:04:35 27° S 19:08:09 10° ESE visible
31 Oct 2.7 20:42:15 10° WSW 20:45:03 22° SSW 20:45:03 22° SSW visible
01 Nov 2.8 20:35:02 10° WSW 20:38:05 19° SSW 20:38:13 19° S visible
02 Nov 3.0 19:27:55 10° WSW 19:30:37 17° SSW 19:31:27 16° S visible
03 Nov 3.3 19:20:57 10° SW 19:23:08 14° SSW 19:24:45 12° S visible
04 Nov 3.5 19:14:22 10° SW 19:15:38 11° SSW 19:16:53 10° S visible
